SCP
0 0 1 1 1 1 1 1 1 1 1 1 1 1 0 0 0 0 0 0 0 0 0 1 0 0 0 0 0 0 0 0 0 0 0 0 0 0 0 0 -0 -0 -0
0 0 0 0 0 0 0 0 1 0 0 1 1 1 1 1 0 1 0 0 1 0 0 1 0 1 0 0 0 0 0 0 0 0 0 0 0 0 0 0 0 0 -0
0 0 0 0 0 0 0 0 0 0 0 0 0 0 1 1 1 1 1 1 1 1 1 1 0 1 0 1 0 0 0 0 0 0 0 0 0 0 0 0 0 0 0
0 0 0 0 0 0 0 0 0 0 0 0 0 0 0 0 1 1 1 1 1 1 1 1 1 1 1 1 1 0 0 0 0 0 0 0 0 0 0 0 0 0 0
0 0 0 0 0 0 0 0 0 0 0 0 0 1 1 1 1 1 1 1 1 1 1 1 1 1 1 1 1 1 1 0 0 0 0 0 0 0 0 0 0 0 0
0 0 0 0 0 0 0 0 0 0 0 0 0 0 0 0 0 0 0 0 0 0 0 1 1 1 1 0 0 1 1 1 0 0 0 0 0 0 0 0 0 0 0
0 0 0 0 0 0 0 0 0 0 0 0 0 0 0 0 0 0 0 0 0 0 0 0 0 1 0 1 1 0 0 0 1 1 0 0 0 0 0 -0 -0 0 0
0 0 0 0 0 0 0 0 0 0 0 0 0 0 0 0 0 0 0 0 0 0 0 0 0 0 0 1 1 0 0 0 0 0 1 0 0 0 0 -0 0 0 0
0 0 0 0 0 0 0 0 0 0 0 0 0 0 0 0 0 0 0 0 0 0 0 0 0 0 0 0 1 1 0 0 1 0 0 0 0 0 0 0 0 0 0
0 0 0 0 0 0 0 0 0 0 0 0 0 0 0 0 0 0 0 0 0 0 0 0 0 0 0 0 0 0 0 0 1 1 0 0 0 0 0 0 0 0 0
0 0 0 0 0 0 0 0 0 0 0 0 0 0 0 0 0 0 0 0 0 0 0 0 0 0 0 0 0 0 0 0 0 1 1 0 0 0 0 0 0 0 0
0 0 0 0 0 0 0 0 0 0 0 0 0 0 0 0 0 0 0 0 0 0 0 0 0 0 0 0 0 0 0 0 0 0 0 1 1 1 0 0 0 0 0
0 0 0 0 0 0 0 0 0 0 0 0 0 0 0 0 0 0 0 0 0 0 0 0 0 0 0 0 -0 0 0 0 0 0 0 1 1 1 1 1 0 0 0
0 0 0 0 0 0 0 0 0 0 0 0 0 0 0 0 0 0 0 0 0 0 0 0 0 -0 -0 -0 0 0 0 0 0 0 0 1 1 1 1 1 1 1 1
0 0 0 0 0 0 0 0 0 0 0 0 0 0 0 0 0 0 0 0 0 0 0 0 0 -0 -0 -0 0 -0 -0 0 0 0 0 0 1 1 1 1 1 2 1
0 0 0 0 0 0 0 0 0 0 0 0 0 0 0 0 0 0 0 0 0 0 0 0 0 0 0 0 0 -0 -0 -0 0 0 0 0 0 0 1 1 1 1 1
0 0 0 0 0 0 0 0 0 0 0 0 0 0 0 0 0 0 0 0 0 0 0 0 0 0 0 0 0 0 0 0 -0 0 0 0 0 1 1 1 1 1 1
0 0 0 0 0 0 0 0 0 0 0 0 0 0 0 0 0 0 0 0 0 0 0 0 0 0 0 0 0 -0 -0 0 0 0 0 0 0 0 1 1 1 1 1
0 0 0 0 0 0 0 0 0 0 0 0 0 0 0 0 0 0 0 0 0 0 0 0 0 0 0 0 0 0 -0 0 0 -0 0 0 0 0 0 0 1 1 1
0 0 0 0 0 0 0 0 0 0 0 0 0 0 0 0 0 0 0 0 0 0 0 0 0 0 0 0 0 0 -0 0 0 -0 0 0 0 0 0 0 0 0 0
0 0 0 0 0 0 0 0 0 0 0 0 0 0 0 0 0 0 0 0 0 0 0 0 0 0 0 0 0 0 0 -0 0 0 -0 0 0 0 0 0 0 0 0
0 0 0 -0 -0 0 0 -0 -0 -0 0 0 0 0 0 0 0 0 0 0 0 0 0 0 0 0 0 0 0 0 0 0 -0 -0 -0 -0 0 0 0 0 0 0 0
0 0 0 0 -0 0 0 -0 -0 -0 -0 -0 0 0 0 0 0 0 0 0 0 0 0 0 0 0 0 0 0 0 0 0 0 -0 0 0 0 0 0 0 0 0 0
0 0 0 0 0 0 0 -0 -0 -0 0 0 0 0 0 0 0 0 0 0 0 0 0 0 0 0 0 0 0 0 0 0 0 0 -0 0 0 0 0 0 0 0 0
0 0 0 0 0 0 0 0 0 0 0 0 -0 -0 0 0 0 0 0 0 0 0 0 0 0 0 0 0 0 0 0 0 0 0 0 -0 -0 0 0 0 0 0 0
0 0 0 0 0 0 0 0 0 0 0 0 0 0 0 0 0 0 0 0 0 0 0 0 -0 -0 -0 0 0 0 0 0 0 0 0 0 0 -0 -0 0 0 0 0
Wind_Speed_500mb
7 8 12 14 16 20 28 35 36 31 42 44 44 46 44 44 47 47 50 47 46 46 43 46 44 38 36 40 43 49 51 45 39 43 32 34 27 25 25 27 23 23 28
18 15 14 17 20 20 17 18 24 32 34 38 40 38 38 43 46 52 53 48 48 49 48 50 50 47 47 48 45 47 51 49 52 44 46 34 33 28 26 36 30 30 33
33 30 25 23 23 23 23 21 24 27 28 25 32 38 36 37 40 44 47 47 48 49 46 46 45 45 49 50 49 45 48 51 55 57 53 45 37 36 34 39 40 37 36
33 35 34 32 34 35 31 30 27 26 27 27 25 30 34 40 56 49 44 46 46 46 45 44 44 44 47 46 48 52 53 53 52 61 63 63 63 55 50 46 45 45 48
34 38 36 35 36 35 37 32 29 28 27 26 25 25 28 38 45 47 45 43 44 48 48 47 43 42 43 44 48 49 48 46 54 58 62 66 68 67 65 60 62 55 51
47 45 38 33 34 35 34 36 32 29 29 29 28 28 28 31 34 32 34 37 39 50 54 52 50 50 49 46 45 49 49 49 51 52 59 66 67 68 57 65 64 63 61
44 42 37 36 37 38 39 39 38 37 36 31 29 28 29 30 29 30 28 32 36 37 40 48 58 62 59 50 44 53 46 58 55 58 58 65 62 56 52 59 64 64 64
32 31 36 40 43 43 43 42 44 44 42 42 36 31 31 30 26 26 28 32 35 35 38 42 46 51 52 50 56 58 63 61 62 59 62 56 54 55 53 51 50 53 52
26 29 33 35 34 33 35 39 40 45 48 49 45 40 36 35 30 25 28 32 36 39 34 32 33 38 42 42 44 54 63 70 59 58 61 62 55 49 45 47 54 50 53
32 35 39 39 35 33 33 38 41 40 43 42 51 49 42 40 36 29 28 28 32 34 33 31 28 30 35 40 49 53 61 68 62 59 58 58 58 52 54 56 56 71 69
31 33 35 38 36 29 31 34 33 34 34 36 36 44 48 42 38 32 31 32 29 26 26 29 29 33 37 40 40 52 62 66 61 63 64 63 61 61 58 58 64 75 79
28 30 33 34 30 29 32 26 26 30 33 31 25 24 28 32 25 30 33 31 30 24 31 35 42 45 44 43 46 47 52 70 70 64 68 74 74 70 65 60 63 64 76
26 26 32 32 27 27 26 27 29 33 35 31 26 26 20 11 13 21 23 29 34 28 34 43 45 43 45 45 40 43 49 52 59 71 73 73 77 80 67 62 61 66 64
27 28 30 31 31 29 21 29 32 34 35 30 26 27 26 23 21 18 22 26 29 34 41 46 49 49 47 48 46 43 45 49 47 50 66 75 72 76 74 69 64 66 69
28 29 30 28 27 27 27 31 30 38 30 26 24 25 30 28 30 37 37 35 42 47 47 47 50 55 52 49 45 47 47 49 49 50 51 53 70 76 81 77 74 68 70
29 30 29 30 28 31 31 30 19 26 27 15 17 18 18 19 21 26 33 36 40 43 42 44 46 48 50 48 45 46 48 51 49 49 53 63 58 69 77 85 84 78 69
23 26 27 27 27 31 29 28 26 13 24 19 23 24 21 20 22 24 30 33 35 32 28 27 30 38 45 45 46 50 58 62 65 62 59 61 68 68 69 80 83 75 67
26 26 21 21 24 25 25 23 21 25 27 25 22 28 20 18 18 21 26 22 16 13 12 20 25 25 28 34 40 52 54 58 61 68 74 67 58 69 67 74 85 82 72
39 36 28 24 22 23 21 20 21 23 22 27 27 26 20 20 19 21 21 19 15 17 12 12 18 28 27 35 44 44 41 39 48 64 58 67 62 58 65 71 67 85 78
37 43 38 33 26 25 19 17 18 25 25 27 35 36 29 21 20 22 23 16 12 12 13 11 14 22 29 34 43 45 38 46 52 50 61 50 59 70 68 67 79 79 90
27 32 39 39 32 29 34 33 26 25 27 27 28 28 28 31 33 30 27 24 22 21 22 22 27 31 33 33 33 39 43 47 51 58 67 60 36 26 51 55 44 74 80
26 23 25 36 40 32 31 31 36 31 35 35 30 31 28 27 34 37 34 27 23 24 25 28 30 36 42 43 43 43 42 41 46 46 54 52 63 21 13 20 33 48 51
15 13 16 23 33 34 36 37 34 41 47 41 37 31 28 27 30 39 41 37 32 28 28 29 33 38 41 44 44 44 48 46 44 37 40 51 62 63 22 16 25 14 40
12 12 14 16 22 29 29 32 35 37 41 47 48 39 33 33 26 29 35 42 41 38 37 38 38 38 40 40 44 43 43 47 45 41 37 45 49 62 45 28 9 31 26
8 12 17 13 15 18 24 26 30 29 30 38 47 42 37 34 39 37 27 30 36 40 42 43 44 45 43 43 42 44 43 44 44 40 34 34 35 45 40 25 18 9 23
17 14 18 22 22 15 15 18 23 26 24 30 39 44 43 40 39 43 40 36 34 35 39 44 45 45 48 45 43 44 45 46 46 38 31 30 30 28 33 27 18 9 8
Wind_Direction_500mb
15 340 314 309 298 290 282 281 285 283 271 262 249 247 253 258 263 264 264 263 269 268 265 265 269 265 262 269 266 263 263 257 256 253 271 264 252 225 226 227 226 238 244
328 326 316 304 302 301 300 301 286 274 271 265 264 265 259 263 265 267 272 272 272 272 275 272 269 264 263 264 263 259 261 263 259 247 255 257 253 224 230 232 245 248 241
313 305 297 293 293 295 294 288 294 299 286 275 258 253 258 263 274 267 267 268 268 271 274 274 274 269 264 262 258 259 260 261 263 258 254 249 239 242 236 236 241 243 244
315 311 305 296 286 286 289 289 285 292 297 289 275 265 261 258 260 263 261 260 260 263 266 268 273 273 271 266 260 260 260 258 262 264 264 260 260 248 245 244 246 246 245
317 317 298 291 292 291 282 286 289 281 278 282 279 267 260 258 259 263 267 269 265 262 263 264 263 267 270 265 267 264 262 259 254 257 263 259 257 255 251 249 258 265 258
321 320 315 300 291 289 290 285 286 288 284 275 270 267 264 266 269 269 271 270 269 266 268 270 272 271 272 270 265 269 267 264 261 261 263 260 260 259 263 256 255 258 259
317 315 304 306 304 298 293 290 287 284 284 286 276 269 263 265 275 272 276 273 271 275 277 276 274 273 275 276 273 273 266 270 267 266 264 263 264 265 266 263 258 258 255
312 315 311 309 307 298 296 295 289 284 279 278 277 274 267 265 272 274 280 284 281 278 283 281 277 278 280 281 274 272 265 270 265 263 265 272 273 271 265 265 255 253 259
331 326 327 322 321 318 311 304 300 294 284 271 268 269 269 262 268 277 292 290 284 279 283 295 289 284 283 282 274 273 271 271 271 266 264 268 270 270 263 256 244 233 241
333 336 338 337 327 319 315 315 313 311 302 294 268 261 266 268 272 281 297 292 282 283 277 280 285 302 305 296 276 271 268 270 281 279 275 269 270 268 265 256 243 239 246
338 342 340 340 334 329 325 331 335 331 322 314 296 268 259 269 280 284 287 288 274 288 289 287 290 306 312 308 303 274 269 274 275 274 276 273 265 262 262 256 249 241 243
340 346 346 342 343 337 335 339 338 336 334 332 319 305 273 273 283 281 297 291 271 286 300 295 300 304 307 312 312 302 284 266 267 271 270 272 271 263 260 264 258 251 250
343 356 356 358 9 354 345 342 340 340 333 333 328 326 332 284 301 294 283 288 281 281 296 299 300 302 303 303 309 313 310 293 277 266 267 267 270 271 271 263 264 260 258
344 356 0 2 2 6 0 0 355 351 338 333 324 316 306 290 270 277 291 293 286 291 301 302 302 304 309 302 308 310 318 311 294 279 273 262 264 267 263 264 261 262 259
354 359 359 356 358 6 358 4 8 4 341 333 334 325 313 306 281 277 277 279 282 288 291 296 303 304 303 304 302 311 310 311 304 298 283 284 270 265 261 263 257 257 258
5 3 357 356 356 356 354 341 25 26 18 22 359 334 330 316 294 278 272 273 275 277 285 292 297 301 304 304 304 308 311 315 309 307 290 279 278 272 263 261 260 253 254
359 359 0 0 4 358 1 3 354 338 354 11 12 10 352 315 303 300 291 286 285 286 288 291 301 306 310 310 305 303 306 308 305 303 311 285 271 272 265 256 255 249 246
6 1 2 2 2 352 355 354 0 352 332 327 343 355 350 342 329 315 304 302 302 310 320 319 315 325 337 344 338 327 312 316 313 304 292 293 278 263 261 254 250 242 239
25 14 10 14 14 12 10 1 358 352 343 352 350 357 7 5 353 346 335 341 348 321 323 329 331 326 313 334 334 341 333 316 315 328 308 292 261 271 260 250 244 242 234
24 20 13 8 15 13 12 16 18 10 9 6 1 5 6 0 351 358 6 359 345 346 359 347 319 310 313 317 319 322 326 341 334 330 321 327 267 268 262 255 251 246 237
1 4 16 12 12 19 21 24 27 19 16 18 12 12 30 27 21 15 10 3 352 341 330 331 325 318 316 319 311 306 317 324 326 340 338 313 334 273 251 244 250 242 237
329 327 356 15 16 15 18 25 29 23 19 19 16 16 32 34 24 15 15 11 359 349 339 326 322 320 319 325 323 318 316 310 308 318 325 331 343 329 300 220 232 241 234
328 314 320 3 15 22 31 34 33 31 27 16 12 8 13 19 14 11 15 19 15 2 346 335 327 321 321 319 325 323 322 317 318 312 312 326 334 328 326 283 238 207 198
337 338 339 340 1 10 8 15 20 21 18 12 8 5 10 7 16 13 14 16 22 22 11 360 348 337 330 325 324 325 322 317 318 312 310 304 317 330 319 330 203 211 193
299 317 312 327 336 341 355 356 354 0 6 7 10 12 9 7 8 5 359 2 7 12 12 9 1 352 345 337 331 328 328 323 319 309 308 295 297 318 322 321 345 160 167
270 288 302 326 296 314 332 341 330 342 350 355 4 8 5 2 359 356 357 2 358 357 1 1 1 360 350 342 337 334 333 330 322 315 304 299 294 289 288 300 316 280 258
Wind_Speed_850mb
7 8 12 14 16 20 28 35 36 31 42 44 44 46 44 44 47 47 50 47 46 46 43 46 44 38 36 40 43 49 51 45 39 43 32 34 27 25 25 27 23 23 28
18 15 14 17 20 20 17 18 24 32 34 38 40 38 38 43 46 52 53 48 48 49 48 50 50 47 47 48 45 47 51 49 52 44 46 34 33 28 26 36 30 30 33
33 30 25 23 23 23 23 21 24 27 28 25 32 38 36 37 40 44 47 47 48 49 46 46 45 45 49 50 49 45 48 51 55 57 53 45 37 36 34 39 40 37 36
33 35 34 32 34 35 31 30 27 26 27 27 25 30 34 40 56 49 44 46 46 46 45 44 44 44 47 46 48 52 53 53 52 61 63 63 63 55 50 46 45 45 48
34 38 36 35 36 35 37 32 29 28 27 26 25 25 28 38 45 47 45 43 44 48 48 47 43 42 43 44 48 49 48 46 54 58 62 66 68 67 65 60 62 55 51
47 45 38 33 34 35 34 36 32 29 29 29 28 28 28 31 34 32 34 37 39 50 54 52 50 50 49 46 45 49 49 49 51 52 59 66 67 68 57 65 64 63 61
44 42 37 36 37 38 39 39 38 37 36 31 29 28 29 30 29 30 28 32 36 37 40 48 58 62 59 50 44 53 46 58 55 58 58 65 62 56 52 59 64 64 64
32 31 36 40 43 43 43 42 44 44 42 42 36 31 31 30 26 26 28 32 35 35 38 42 46 51 52 50 56 58 63 61 62 59 62 56 54 55 53 51 50 53 52
26 29 33 35 34 33 35 39 40 45 48 49 45 40 36 35 30 25 28 32 36 39 34 32 33 38 42 42 44 54 63 70 59 58 61 62 55 49 45 47 54 50 53
32 35 39 39 35 33 33 38 41 40 43 42 51 49 42 40 36 29 28 28 32 34 33 31 28 30 35 40 49 53 61 68 62 59 58 58 58 52 54 56 56 71 69
31 33 35 38 36 29 31 34 33 34 34 36 36 44 48 42 38 32 31 32 29 26 26 29 29 33 37 40 40 52 62 66 61 63 64 63 61 61 58 58 64 75 79
28 30 33 34 30 29 32 26 26 30 33 31 25 24 28 32 25 30 33 31 30 24 31 35 42 45 44 43 46 47 52 70 70 64 68 74 74 70 65 60 63 64 76
26 26 32 32 27 27 26 27 29 33 35 31 26 26 20 11 13 21 23 29 34 28 34 43 45 43 45 45 40 43 49 52 59 71 73 73 77 80 67 62 61 66 64
27 28 30 31 31 29 21 29 32 34 35 30 26 27 26 23 21 18 22 26 29 34 41 46 49 49 47 48 46 43 45 49 47 50 66 75 72 76 74 69 64 66 69
28 29 30 28 27 27 27 31 30 38 30 26 24 25 30 28 30 37 37 35 42 47 47 47 50 55 52 49 45 47 47 49 49 50 51 53 70 76 81 77 74 68 70
29 30 29 30 28 31 31 30 19 26 27 15 17 18 18 19 21 26 33 36 40 43 42 44 46 48 50 48 45 46 48 51 49 49 53 63 58 69 77 85 84 78 69
23 26 27 27 27 31 29 28 26 13 24 19 23 24 21 20 22 24 30 33 35 32 28 27 30 38 45 45 46 50 58 62 65 62 59 61 68 68 69 80 83 75 67
26 26 21 21 24 25 25 23 21 25 27 25 22 28 20 18 18 21 26 22 16 13 12 20 25 25 28 34 40 52 54 58 61 68 74 67 58 69 67 74 85 82 72
39 36 28 24 22 23 21 20 21 23 22 27 27 26 20 20 19 21 21 19 15 17 12 12 18 28 27 35 44 44 41 39 48 64 58 67 62 58 65 71 67 85 78
37 43 38 33 26 25 19 17 18 25 25 27 35 36 29 21 20 22 23 16 12 12 13 11 14 22 29 34 43 45 38 46 52 50 61 50 59 70 68 67 79 79 90
27 32 39 39 32 29 34 33 26 25 27 27 28 28 28 31 33 30 27 24 22 21 22 22 27 31 33 33 33 39 43 47 51 58 67 60 36 26 51 55 44 74 80
26 23 25 36 40 32 31 31 36 31 35 35 30 31 28 27 34 37 34 27 23 24 25 28 30 36 42 43 43 43 42 41 46 46 54 52 63 21 13 20 33 48 51
15 13 16 23 33 34 36 37 34 41 47 41 37 31 28 27 30 39 41 37 32 28 28 29 33 38 41 44 44 44 48 46 44 37 40 51 62 63 22 16 25 14 40
12 12 14 16 22 29 29 32 35 37 41 47 48 39 33 33 26 29 35 42 41 38 37 38 38 38 40 40 44 43 43 47 45 41 37 45 49 62 45 28 9 31 26
8 12 17 13 15 18 24 26 30 29 30 38 47 42 37 34 39 37 27 30 36 40 42 43 44 45 43 43 42 44 43 44 44 40 34 34 35 45 40 25 18 9 23
17 14 18 22 22 15 15 18 23 26 24 30 39 44 43 40 39 43 40 36 34 35 39 44 45 45 48 45 43 44 45 46 46 38 31 30 30 28 33 27 18 9 8
Wind_Direction_850mb
15 340 314 309 298 290 282 281 285 283 271 262 249 247 253 258 263 264 264 263 269 268 265 265 269 265 262 269 266 263 263 257 256 253 271 264 252 225 226 227 226 238 244
328 326 316 304 302 301 300 301 286 274 271 265 264 265 259 263 265 267 272 272 272 272 275 272 269 264 263 264 263 259 261 263 259 247 255 257 253 224 230 232 245 248 241
313 305 297 293 293 295 294 288 294 299 286 275 258 253 258 263 274 267 267 268 268 271 274 274 274 269 264 262 258 259 260 261 263 258 254 249 239 242 236 236 241 243 244
315 311 305 296 286 286 289 289 285 292 297 289 275 265 261 258 260 263 261 260 260 263 266 268 273 273 271 266 260 260 260 258 262 264 264 260 260 248 245 244 246 246 245
317 317 298 291 292 291 282 286 289 281 278 282 279 267 260 258 259 263 267 269 265 262 263 264 263 267 270 265 267 264 262 259 254 257 263 259 257 255 251 249 258 265 258
321 320 315 300 291 289 290 285 286 288 284 275 270 267 264 266 269 269 271 270 269 266 268 270 272 271 272 270 265 269 267 264 261 261 263 260 260 259 263 256 255 258 259
317 315 304 306 304 298 293 290 287 284 284 286 276 269 263 265 275 272 276 273 271 275 277 276 274 273 275 276 273 273 266 270 267 266 264 263 264 265 266 263 258 258 255
312 315 311 309 307 298 296 295 289 284 279 278 277 274 267 265 272 274 280 284 281 278 283 281 277 278 280 281 274 272 265 270 265 263 265 272 273 271 265 265 255 253 259
331 326 327 322 321 318 311 304 300 294 284 271 268 269 269 262 268 277 292 290 284 279 283 295 289 284 283 282 274 273 271 271 271 266 264 268 270 270 263 256 244 233 241
333 336 338 337 327 319 315 315 313 311 302 294 268 261 266 268 272 281 297 292 282 283 277 280 285 302 305 296 276 271 268 270 281 279 275 269 270 268 265 256 243 239 246
338 342 340 340 334 329 325 331 335 331 322 314 296 268 259 269 280 284 287 288 274 288 289 287 290 306 312 308 303 274 269 274 275 274 276 273 265 262 262 256 249 241 243
340 346 346 342 343 337 335 339 338 336 334 332 319 305 273 273 283 281 297 291 271 286 300 295 300 304 307 312 312 302 284 266 267 271 270 272 271 263 260 264 258 251 250
343 356 356 358 9 354 345 342 340 340 333 333 328 326 332 284 301 294 283 288 281 281 296 299 300 302 303 303 309 313 310 293 277 266 267 267 270 271 271 263 264 260 258
344 356 0 2 2 6 0 0 355 351 338 333 324 316 306 290 270 277 291 293 286 291 301 302 302 304 309 302 308 310 318 311 294 279 273 262 264 267 263 264 261 262 259
354 359 359 356 358 6 358 4 8 4 341 333 334 325 313 306 281 277 277 279 282 288 291 296 303 304 303 304 302 311 310 311 304 298 283 284 270 265 261 263 257 257 258
5 3 357 356 356 356 354 341 25 26 18 22 359 334 330 316 294 278 272 273 275 277 285 292 297 301 304 304 304 308 311 315 309 307 290 279 278 272 263 261 260 253 254
359 359 0 0 4 358 1 3 354 338 354 11 12 10 352 315 303 300 291 286 285 286 288 291 301 306 310 310 305 303 306 308 305 303 311 285 271 272 265 256 255 249 246
6 1 2 2 2 352 355 354 0 352 332 327 343 355 350 342 329 315 304 302 302 310 320 319 315 325 337 344 338 327 312 316 313 304 292 293 278 263 261 254 250 242 239
25 14 10 14 14 12 10 1 358 352 343 352 350 357 7 5 353 346 335 341 348 321 323 329 331 326 313 334 334 341 333 316 315 328 308 292 261 271 260 250 244 242 234
24 20 13 8 15 13 12 16 18 10 9 6 1 5 6 0 351 358 6 359 345 346 359 347 319 310 313 317 319 322 326 341 334 330 321 327 267 268 262 255 251 246 237
1 4 16 12 12 19 21 24 27 19 16 18 12 12 30 27 21 15 10 3 352 341 330 331 325 318 316 319 311 306 317 324 326 340 338 313 334 273 251 244 250 242 237
329 327 356 15 16 15 18 25 29 23 19 19 16 16 32 34 24 15 15 11 359 349 339 326 322 320 319 325 323 318 316 310 308 318 325 331 343 329 300 220 232 241 234
328 314 320 3 15 22 31 34 33 31 27 16 12 8 13 19 14 11 15 19 15 2 346 335 327 321 321 319 325 323 322 317 318 312 312 326 334 328 326 283 238 207 198
337 338 339 340 1 10 8 15 20 21 18 12 8 5 10 7 16 13 14 16 22 22 11 360 348 337 330 325 324 325 322 317 318 312 310 304 317 330 319 330 203 211 193
299 317 312 327 336 341 355 356 354 0 6 7 10 12 9 7 8 5 359 2 7 12 12 9 1 352 345 337 331 328 328 323 319 309 308 295 297 318 322 321 345 160 167
270 288 302 326 296 314 332 341 330 342 350 355 4 8 5 2 359 356 357 2 358 357 1 1 1 360 350 342 337 334 333 330 322 315 304 299 294 289 288 300 316 280 258